Time,TemperatureF,DewpointF,PressureIn,WindDirection,WindDirectionDegrees,WindSpeedMPH,WindSpeedGustMPH,Humidity,HourlyPrecipIn,Conditions,Clouds,dailyrainin,SoftwareType,DateUTC
2013-03-04 00:02:00,27.0,-99.9,-100.00,North,-999,-999.0,-999.0,-999,0.00,,,0.21,,2013-03-04 07:02:00,
2013-03-04 00:12:00,27.0,-99.9,-100.00,North,-999,-999.0,-999.0,-999,0.00,,,0.21,,2013-03-04 07:12:00,
2013-03-04 00:22:00,27.0,-99.9,-100.00,North,-999,-999.0,-999.0,-999,0.00,,,0.21,,2013-03-04 07:22:00,
2013-03-04 00:32:00,27.0,-99.9,-100.00,North,-999,-999.0,-999.0,-999,0.00,,,0.21,,2013-03-04 07:32:00,
2013-03-04 00:42:00,27.0,-99.9,-100.00,North,-999,-999.0,-999.0,-999,0.00,,,0.21,,2013-03-04 07:42:00,
2013-03-04 01:12:00,26.0,-99.9,-100.00,North,-999,-999.0,-999.0,-999,0.00,,,0.15,,2013-03-04 08:12:00,
2013-03-04 01:22:00,26.0,-99.9,-100.00,North,-999,-999.0,-999.0,-999,0.00,,,0.15,,2013-03-04 08:22:00,
2013-03-04 01:32:00,26.0,-99.9,-100.00,North,-999,-999.0,-999.0,-999,0.00,,,0.15,,2013-03-04 08:32:00,
2013-03-04 01:42:00,26.0,-99.9,-100.00,North,-999,-999.0,-999.0,-999,0.00,,,0.15,,2013-03-04 08:42:00,
2013-03-04 02:12:00,25.0,-99.9,-100.00,North,-999,-999.0,-999.0,-999,0.00,,,0.11,,2013-03-04 09:12:00,
2013-03-04 02:22:00,25.0,-99.9,-100.00,North,-999,-999.0,-999.0,-999,0.00,,,0.11,,2013-03-04 09:22:00,
2013-03-04 02:32:00,25.0,-99.9,-100.00,North,-999,-999.0,-999.0,-999,0.00,,,0.11,,2013-03-04 09:32:00,
2013-03-04 02:42:00,25.0,-99.9,-100.00,North,-999,-999.0,-999.0,-999,0.00,,,0.11,,2013-03-04 09:42:00,
2013-03-04 03:12:00,26.0,-99.9,-100.00,North,-999,-999.0,-999.0,-999,0.00,,,0.11,,2013-03-04 10:12:00,
2013-03-04 03:22:00,26.0,-99.9,-100.00,North,-999,-999.0,-999.0,-999,0.00,,,0.11,,2013-03-04 10:22:00,
2013-03-04 03:32:00,26.0,-99.9,-100.00,North,-999,-999.0,-999.0,-999,0.00,,,0.11,,2013-03-04 10:32:00,
2013-03-04 03:42:00,26.0,-99.9,-100.00,North,-999,-999.0,-999.0,-999,0.00,,,0.11,,2013-03-04 10:42:00,
2013-03-04 04:12:00,24.0,-99.9,-100.00,North,-999,-999.0,-999.0,-999,0.00,,,0.11,,2013-03-04 11:12:00,
2013-03-04 04:22:00,24.0,-99.9,-100.00,North,-999,-999.0,-999.0,-999,0.00,,,0.11,,2013-03-04 11:22:00,
2013-03-04 04:32:00,24.0,-99.9,-100.00,North,-999,-999.0,-999.0,-999,0.00,,,0.11,,2013-03-04 11:32:00,
2013-03-04 04:42:00,24.0,-99.9,-100.00,North,-999,-999.0,-999.0,-999,0.00,,,0.11,,2013-03-04 11:42:00,
2013-03-04 05:12:00,24.0,-99.9,-100.00,North,-999,-999.0,-999.0,-999,0.00,,,0.10,,2013-03-04 12:12:00,
2013-03-04 05:22:00,24.0,-99.9,-100.00,North,-999,-999.0,-999.0,-999,0.00,,,0.10,,2013-03-04 12:22:00,
2013-03-04 05:32:00,24.0,-99.9,-100.00,North,-999,-999.0,-999.0,-999,0.00,,,0.10,,2013-03-04 12:32:00,
2013-03-04 05:43:00,24.0,-99.9,-100.00,North,-999,-999.0,-999.0,-999,0.00,,,0.10,,2013-03-04 12:43:00,
2013-03-04 06:12:00,22.0,-99.9,-100.00,North,-999,-999.0,-999.0,-999,0.00,,,0.03,,2013-03-04 13:12:00,
2013-03-04 06:22:00,22.0,-99.9,-100.00,North,-999,-999.0,-999.0,-999,0.00,,,0.03,,2013-03-04 13:22:00,
2013-03-04 06:32:00,22.0,-99.9,-100.00,North,-999,-999.0,-999.0,-999,0.00,,,0.03,,2013-03-04 13:32:00,
2013-03-04 06:42:00,22.0,-99.9,-100.00,North,-999,-999.0,-999.0,-999,0.00,,,0.03,,2013-03-04 13:42:00,
2013-03-04 07:12:00,22.0,-99.9,-100.00,North,-999,-999.0,-999.0,-999,0.00,,,-99.99,,2013-03-04 14:12:00,
2013-03-04 07:22:00,22.0,-99.9,-100.00,North,-999,-999.0,-999.0,-999,0.00,,,-99.99,,2013-03-04 14:22:00,
2013-03-04 07:32:00,22.0,-99.9,-100.00,North,-999,-999.0,-999.0,-999,0.00,,,-99.99,,2013-03-04 14:32:00,
2013-03-04 07:42:00,22.0,-99.9,-100.00,North,-999,-999.0,-999.0,-999,0.00,,,-99.99,,2013-03-04 14:42:00,
2013-03-04 08:11:00,21.0,-99.9,-100.00,North,-999,-999.0,-999.0,-999,0.00,,,0.03,,2013-03-04 15:11:00,
2013-03-04 08:22:00,21.0,-99.9,-100.00,North,-999,-999.0,-999.0,-999,0.00,,,0.03,,2013-03-04 15:22:00,
2013-03-04 08:32:00,21.0,-99.9,-100.00,North,-999,-999.0,-999.0,-999,0.00,,,0.03,,2013-03-04 15:32:00,
2013-03-04 08:42:00,21.0,-99.9,-100.00,North,-999,-999.0,-999.0,-999,0.00,,,0.03,,2013-03-04 15:42:00,
2013-03-04 09:11:00,23.0,-99.9,-100.00,North,-999,-999.0,-999.0,-999,0.00,,,0.03,,2013-03-04 16:11:00,
2013-03-04 09:22:00,23.0,-99.9,-100.00,North,-999,-999.0,-999.0,-999,0.00,,,0.03,,2013-03-04 16:22:00,
2013-03-04 09:32:00,23.0,-99.9,-100.00,North,-999,-999.0,-999.0,-999,0.00,,,0.03,,2013-03-04 16:32:00,
2013-03-04 09:42:00,23.0,-99.9,-100.00,North,-999,-999.0,-999.0,-999,0.00,,,0.03,,2013-03-04 16:42:00,
2013-03-04 10:11:00,27.0,-99.9,-100.00,North,-999,-999.0,-999.0,-999,0.00,,,0.02,,2013-03-04 17:11:00,
2013-03-04 10:22:00,27.0,-99.9,-100.00,North,-999,-999.0,-999.0,-999,0.00,,,0.02,,2013-03-04 17:22:00,
2013-03-04 10:32:00,27.0,-99.9,-100.00,North,-999,-999.0,-999.0,-999,0.00,,,0.02,,2013-03-04 17:32:00,
2013-03-04 10:42:00,27.0,-99.9,-100.00,North,-999,-999.0,-999.0,-999,0.00,,,0.02,,2013-03-04 17:42:00,
2013-03-04 11:11:00,27.0,-99.9,-100.00,North,-999,-999.0,-999.0,-999,0.00,,,0.03,,2013-03-04 18:11:00,
2013-03-04 11:22:00,27.0,-99.9,-100.00,North,-999,-999.0,-999.0,-999,0.00,,,0.03,,2013-03-04 18:22:00,
2013-03-04 11:33:00,27.0,-99.9,-100.00,North,-999,-999.0,-999.0,-999,0.00,,,0.03,,2013-03-04 18:33:00,
2013-03-04 11:43:00,27.0,-99.9,-100.00,North,-999,-999.0,-999.0,-999,0.00,,,0.03,,2013-03-04 18:43:00,
2013-03-04 12:33:00,29.0,-99.9,-100.00,North,-999,-999.0,-999.0,-999,0.00,,,0.02,,2013-03-04 19:33:00,
2013-03-04 12:42:00,29.0,-99.9,-100.00,North,-999,-999.0,-999.0,-999,0.00,,,0.02,,2013-03-04 19:42:00,
2013-03-04 13:12:00,31.0,-99.9,-100.00,North,-999,-999.0,-999.0,-999,0.00,,,0.02,,2013-03-04 20:12:00,
2013-03-04 13:22:00,31.0,-99.9,-100.00,North,-999,-999.0,-999.0,-999,0.00,,,0.02,,2013-03-04 20:22:00,
2013-03-04 13:33:00,31.0,-99.9,-100.00,North,-999,-999.0,-999.0,-999,0.00,,,0.02,,2013-03-04 20:33:00,
2013-03-04 13:42:00,31.0,-99.9,-100.00,North,-999,-999.0,-999.0,-999,0.00,,,0.02,,2013-03-04 20:42:00,
2013-03-04 14:12:00,32.0,-99.9,-100.00,North,-999,-999.0,-999.0,-999,0.01,,,0.03,,2013-03-04 21:12:00,
2013-03-04 14:22:00,32.0,-99.9,-100.00,North,-999,-999.0,-999.0,-999,0.01,,,0.03,,2013-03-04 21:22:00,
2013-03-04 14:33:00,32.0,-99.9,-100.00,North,-999,-999.0,-999.0,-999,0.01,,,0.03,,2013-03-04 21:33:00,
2013-03-04 14:43:00,32.0,-99.9,-100.00,North,-999,-999.0,-999.0,-999,0.01,,,0.03,,2013-03-04 21:43:00,
2013-03-04 15:12:00,32.0,-99.9,-100.00,North,-999,-999.0,-999.0,-999,0.00,,,0.03,,2013-03-04 22:12:00,
2013-03-04 15:22:00,32.0,-99.9,-100.00,North,-999,-999.0,-999.0,-999,0.00,,,0.03,,2013-03-04 22:22:00,
2013-03-04 15:32:00,32.0,-99.9,-100.00,North,-999,-999.0,-999.0,-999,0.00,,,0.03,,2013-03-04 22:32:00,
2013-03-04 15:43:00,32.0,-99.9,-100.00,North,-999,-999.0,-999.0,-999,0.00,,,0.03,,2013-03-04 22:43:00,
2013-03-04 16:12:00,32.0,-99.9,-100.00,North,-999,-999.0,-999.0,-999,0.00,,,0.03,,2013-03-04 23:12:00,
2013-03-04 16:22:00,32.0,-99.9,-100.00,North,-999,-999.0,-999.0,-999,0.00,,,0.03,,2013-03-04 23:22:00,
2013-03-04 16:32:00,32.0,-99.9,-100.00,North,-999,-999.0,-999.0,-999,0.00,,,0.03,,2013-03-04 23:32:00,
2013-03-04 16:42:00,32.0,-99.9,-100.00,North,-999,-999.0,-999.0,-999,0.00,,,0.03,,2013-03-04 23:42:00,
2013-03-04 18:12:00,31.0,-99.9,-100.00,North,-999,-999.0,-999.0,-999,-99.99,,,-99.99,,2013-03-05 01:12:00,
2013-03-04 18:22:00,31.0,-99.9,-100.00,North,-999,-999.0,-999.0,-999,-99.99,,,-99.99,,2013-03-05 01:22:00,
2013-03-04 18:33:00,31.0,-99.9,-100.00,North,-999,-999.0,-999.0,-999,-99.99,,,-99.99,,2013-03-05 01:33:00,
2013-03-04 18:42:00,31.0,-99.9,-100.00,North,-999,-999.0,-999.0,-999,-99.99,,,-99.99,,2013-03-05 01:42:00,
2013-03-04 19:12:00,29.0,-99.9,-100.00,North,-999,-999.0,-999.0,-999,0.00,,,-99.99,,2013-03-05 02:12:00,
2013-03-04 19:22:00,29.0,-99.9,-100.00,North,-999,-999.0,-999.0,-999,0.00,,,-99.99,,2013-03-05 02:22:00,
2013-03-04 19:33:00,29.0,-99.9,-100.00,North,-999,-999.0,-999.0,-999,0.00,,,-99.99,,2013-03-05 02:33:00,
2013-03-04 19:42:00,29.0,-99.9,-100.00,North,-999,-999.0,-999.0,-999,0.00,,,-99.99,,2013-03-05 02:42:00,
2013-03-04 20:12:00,29.0,-99.9,-100.00,North,-999,-999.0,-999.0,-999,0.01,,,0.01,,2013-03-05 03:12:00,
2013-03-04 20:22:00,29.0,-99.9,-100.00,North,-999,-999.0,-999.0,-999,0.01,,,0.01,,2013-03-05 03:22:00,
2013-03-04 20:33:00,29.0,-99.9,-100.00,North,-999,-999.0,-999.0,-999,0.01,,,0.01,,2013-03-05 03:33:00,
2013-03-04 20:42:00,29.0,-99.9,-100.00,North,-999,-999.0,-999.0,-999,0.01,,,0.01,,2013-03-05 03:42:00,
2013-03-04 21:12:00,27.0,-99.9,-100.00,North,-999,-999.0,-999.0,-999,0.00,,,0.01,,2013-03-05 04:12:00,
2013-03-04 21:22:00,27.0,-99.9,-100.00,North,-999,-999.0,-999.0,-999,0.00,,,0.01,,2013-03-05 04:22:00,
2013-03-04 21:32:00,27.0,-99.9,-100.00,North,-999,-999.0,-999.0,-999,0.00,,,0.01,,2013-03-05 04:32:00,
2013-03-04 21:42:00,27.0,-99.9,-100.00,North,-999,-999.0,-999.0,-999,0.00,,,0.01,,2013-03-05 04:42:00,
2013-03-04 23:11:00,22.0,-99.9,-100.00,North,-999,-999.0,-999.0,-999,-99.99,,,0.00,,2013-03-05 06:11:00,
2013-03-04 23:22:00,22.0,-99.9,-100.00,North,-999,-999.0,-999.0,-999,-99.99,,,0.00,,2013-03-05 06:22:00,
2013-03-04 23:32:00,22.0,-99.9,-100.00,North,-999,-999.0,-999.0,-999,-99.99,,,0.00,,2013-03-05 06:32:00,
2013-03-04 23:42:00,22.0,-99.9,-100.00,North,-999,-999.0,-999.0,-999,-99.99,,,0.00,,2013-03-05 06:42:00,